Location: Riverside Cemetery
(38.3047°N, 99.7773°W)
Time: 11:43:12
(UTC+00:00)

Cosmos 1980 Rocket - Pass Details

Date: 19 September 2020
Orbit: 831 x 848 km, 71.0° (Epoch: 30 October)

Event Time Altitude Azimuth Distance (km) Brightness Sun altitude
Exits shadow 09:22:50 42° 79° (ENE) 1,195 3.2 -34.4°
Drops below altitude 10° 09:27:15 10° 35° (NE) 2,468 5.3 -33.7°
Sets 09:29:47 0° 29° (NNE) 3,404 6.2 -33.3°
